CEB731 RPLL-WBKK

Flight info

Callsign CEB731
Flight time N/A
Altitude 36000
Route BUCAL2V BUCAL M646 MIKEL DCT ENBAX ENBAX1A
Aircraft A21N/L-V/N

Departure

Time 2026-04-30 10:57
Airport Ninoy Aquino International Airport (RPLL)

Arrival

Time N/A
Airport Kota Kinabalu International Airport (WBKK)
Time Latitude Longitude Altitude Speed Heading
2026-04-30 10:46 14.52240 121.00949 82 ft 0 kts 44°
2026-04-30 10:49 14.52237 121.00945 82 ft 2 kts 45°
2026-04-30 10:49 14.52226 121.00935 82 ft 2 kts 44°
2026-04-30 10:49 14.52217 121.00925 82 ft 2 kts 44°
2026-04-30 10:49 14.52207 121.00916 82 ft 2 kts 44°
2026-04-30 10:50 14.52196 121.00904 82 ft 2 kts 44°
2026-04-30 10:50 14.52185 121.00893 82 ft 2 kts 44°
2026-04-30 10:50 14.52177 121.00885 82 ft 1 kts 45°
2026-04-30 10:50 14.52164 121.00877 82 ft 2 kts
2026-04-30 10:51 14.52147 121.00877 82 ft 2 kts 336°
2026-04-30 10:51 14.52138 121.00884 82 ft 1 kts 314°
2026-04-30 10:51 14.52134 121.00888 82 ft 0 kts 314°
2026-04-30 10:53 14.52136 121.00886 82 ft 1 kts 315°
2026-04-30 10:53 14.52149 121.00873 82 ft 3 kts 315°
2026-04-30 10:53 14.52174 121.00847 82 ft 6 kts 315°
2026-04-30 10:53 14.52211 121.00809 82 ft 8 kts 315°
2026-04-30 10:54 14.52255 121.00764 82 ft 10 kts 315°
2026-04-30 10:54 14.52313 121.00704 82 ft 12 kts 315°
2026-04-30 10:54 14.52375 121.00640 82 ft 14 kts 315°
2026-04-30 10:54 14.52443 121.00569 82 ft 15 kts 314°
2026-04-30 10:55 14.52513 121.00496 82 ft 13 kts 315°
2026-04-30 10:55 14.52545 121.00414 82 ft 13 kts 268°
2026-04-30 10:55 14.52540 121.00322 82 ft 13 kts 266°
2026-04-30 10:55 14.52533 121.00262 82 ft 5 kts 241°
2026-04-30 10:56 14.52504 121.00262 82 ft 5 kts 143°
2026-04-30 10:56 14.52406 121.00360 82 ft 6 kts 132°
2026-04-30 10:56 14.52376 121.00393 82 ft 6 kts 134°
2026-04-30 10:56 14.52333 121.00438 82 ft 19 kts 135°
2026-04-30 10:57 14.52059 121.00718 82 ft 95 kts 135°
2026-04-30 10:57 14.51459 121.01343 92 ft 155 kts 134°
2026-04-30 10:57 14.50735 121.02137 734 ft 150 kts 131°
2026-04-30 10:57 14.50017 121.02910 1296 ft 158 kts 134°
2026-04-30 10:58 14.49211 121.03712 1827 ft 163 kts 133°
2026-04-30 10:58 14.48363 121.04568 2101 ft 176 kts 132°
2026-04-30 10:58 14.47450 121.05486 2372 ft 190 kts 137°
2026-04-30 10:58 14.46206 121.06014 2607 ft 210 kts 178°
2026-04-30 10:59 14.44795 121.05554 2878 ft 226 kts 209°
2026-04-30 10:59 14.43414 121.04629 3111 ft 246 kts 213°
2026-04-30 10:59 14.41965 121.03638 3532 ft 257 kts 212°
2026-04-30 10:59 14.40451 121.02668 4153 ft 260 kts 211°
2026-04-30 11:00 14.38883 121.01717 4806 ft 262 kts 209°
2026-04-30 11:00 14.37284 121.00786 5446 ft 264 kts 208°
2026-04-30 11:00 14.35669 120.99867 6097 ft 267 kts 208°
2026-04-30 11:00 14.34036 120.98949 6739 ft 269 kts 208°
2026-04-30 11:01 14.32390 120.98032 7355 ft 271 kts 207°
2026-04-30 11:01 14.30728 120.97109 7945 ft 274 kts 207°
2026-04-30 11:01 14.29020 120.96163 8530 ft 277 kts 206°
2026-04-30 11:01 14.27341 120.95236 9097 ft 279 kts 206°
2026-04-30 11:02 14.25622 120.94287 9643 ft 282 kts 206°
2026-04-30 11:02 14.23866 120.93321 10185 ft 284 kts 206°
2026-04-30 11:02 14.22123 120.92363 10710 ft 286 kts 206°
2026-04-30 11:02 14.20377 120.91403 11221 ft 288 kts 206°
2026-04-30 11:03 14.18607 120.90430 11723 ft 290 kts 206°
2026-04-30 11:03 14.16808 120.89439 12220 ft 292 kts 206°
2026-04-30 11:03 14.15023 120.88456 12697 ft 294 kts 206°
2026-04-30 11:04 14.11382 120.86452 13654 ft 297 kts 206°
2026-04-30 11:04 14.09581 120.85461 14113 ft 298 kts 206°
2026-04-30 11:04 14.07734 120.84444 14575 ft 300 kts 206°
2026-04-30 11:04 14.05887 120.83429 15029 ft 302 kts 206°
2026-04-30 11:05 14.04027 120.82406 15476 ft 303 kts 206°
2026-04-30 11:05 14.02146 120.81371 15918 ft 305 kts 206°
2026-04-30 11:05 14.01526 120.81030 16062 ft 305 kts 206°
2026-04-30 11:05 13.99025 120.79655 16638 ft 307 kts 206°
2026-04-30 11:06 13.96504 120.78269 17199 ft 309 kts 207°
2026-04-30 11:06 13.94592 120.77219 17609 ft 311 kts 207°
2026-04-30 11:06 13.92685 120.76171 18008 ft 313 kts 207°
2026-04-30 11:06 13.90743 120.75103 18400 ft 314 kts 207°
2026-04-30 11:07 13.89459 120.74398 18654 ft 315 kts 207°
2026-04-30 11:07 13.86862 120.72972 19165 ft 317 kts 207°
2026-04-30 11:07 13.84921 120.71908 19532 ft 319 kts 207°
2026-04-30 11:07 13.82943 120.70821 19892 ft 321 kts 207°
2026-04-30 11:08 13.80978 120.69743 20236 ft 323 kts 207°
2026-04-30 11:08 13.78973 120.68641 20578 ft 325 kts 207°
2026-04-30 11:08 13.76979 120.67547 20903 ft 328 kts 207°
2026-04-30 11:08 13.74935 120.66426 21233 ft 330 kts 207°
2026-04-30 11:09 13.72910 120.65314 21553 ft 332 kts 207°
2026-04-30 11:09 13.70849 120.64182 21873 ft 335 kts 207°
2026-04-30 11:09 13.68802 120.63061 22190 ft 336 kts 207°
2026-04-30 11:09 13.66735 120.61926 22513 ft 338 kts 207°
2026-04-30 11:10 13.64650 120.60785 22834 ft 340 kts 207°
2026-04-30 11:10 13.62535 120.59625 23150 ft 342 kts 207°
2026-04-30 11:10 13.60421 120.58470 23458 ft 345 kts 206°
2026-04-30 11:10 13.58244 120.57385 23767 ft 347 kts 205°
2026-04-30 11:11 13.56065 120.56338 24078 ft 348 kts 204°
2026-04-30 11:11 13.53866 120.55285 24396 ft 350 kts 205°
2026-04-30 11:11 13.51652 120.54224 24711 ft 352 kts 205°
2026-04-30 11:11 13.49433 120.53160 25023 ft 353 kts 205°
2026-04-30 11:12 13.47178 120.52077 25337 ft 355 kts 205°
2026-04-30 11:12 13.44955 120.51008 25639 ft 356 kts 205°
2026-04-30 11:12 13.42671 120.49910 25939 ft 358 kts 205°
2026-04-30 11:12 13.40414 120.48825 26215 ft 360 kts 205°
2026-04-30 11:13 13.38141 120.47732 26505 ft 362 kts 205°
2026-04-30 11:13 13.35859 120.46637 26773 ft 364 kts 205°
2026-04-30 11:13 13.33569 120.45538 27062 ft 365 kts 205°
2026-04-30 11:13 13.31249 120.44424 27344 ft 366 kts 205°
2026-04-30 11:14 13.28922 120.43310 27624 ft 368 kts 205°
2026-04-30 11:14 13.26591 120.42193 27889 ft 370 kts 205°
2026-04-30 11:14 13.24252 120.41071 28147 ft 372 kts 205°
2026-04-30 11:14 13.21896 120.39941 28411 ft 373 kts 205°
2026-04-30 11:15 13.19554 120.38818 28668 ft 375 kts 206°
2026-04-30 11:15 13.17174 120.37675 28933 ft 377 kts 205°
2026-04-30 11:15 13.14811 120.36540 29202 ft 378 kts 205°
2026-04-30 11:15 13.12416 120.35388 29460 ft 380 kts 205°
2026-04-30 11:16 13.10002 120.34229 29731 ft 381 kts 205°
2026-04-30 11:16 13.07613 120.33084 29985 ft 383 kts 205°
2026-04-30 11:16 13.05179 120.31917 30255 ft 384 kts 205°
2026-04-30 11:16 13.02739 120.30747 30516 ft 386 kts 204°
2026-04-30 11:17 13.00318 120.29587 30764 ft 387 kts 204°
2026-04-30 11:17 12.97866 120.28412 31021 ft 389 kts 204°
2026-04-30 11:17 12.95399 120.27229 31264 ft 390 kts 204°
2026-04-30 11:17 12.92920 120.26042 31516 ft 392 kts 204°
2026-04-30 11:18 12.90469 120.24868 31761 ft 393 kts 204°
2026-04-30 11:18 12.85479 120.22480 32246 ft 396 kts 204°
2026-04-30 11:18 12.82978 120.21283 32516 ft 396 kts 204°
2026-04-30 11:19 12.80497 120.20095 32795 ft 397 kts 204°
2026-04-30 11:19 12.77977 120.18891 33037 ft 399 kts 204°
2026-04-30 11:19 12.75439 120.17678 33263 ft 401 kts 204°
2026-04-30 11:19 12.74595 120.17275 33342 ft 402 kts 204°
2026-04-30 11:20 12.67816 120.14035 33962 ft 406 kts 204°
2026-04-30 11:20 12.65209 120.12789 34167 ft 409 kts 204°
2026-04-30 11:20 12.62637 120.11561 34367 ft 411 kts 204°
2026-04-30 11:21 12.60041 120.10321 34575 ft 412 kts 204°
2026-04-30 11:21 12.57443 120.09080 34775 ft 414 kts 204°
2026-04-30 11:21 12.54822 120.07829 34966 ft 416 kts 204°
2026-04-30 11:21 12.52190 120.06573 35139 ft 418 kts 204°
2026-04-30 11:22 12.49545 120.05310 35303 ft 420 kts 204°
2026-04-30 11:22 12.46887 120.04041 35469 ft 422 kts 204°
2026-04-30 11:22 12.44209 120.02763 35620 ft 424 kts 204°
2026-04-30 11:22 12.40638 120.01061 35827 ft 426 kts 204°
2026-04-30 11:23 12.36125 119.98910 35901 ft 433 kts 204°
2026-04-30 11:24 12.27817 119.94951 35895 ft 441 kts 204°
2026-04-30 11:24 12.22209 119.92279 35897 ft 442 kts 204°
2026-04-30 11:25 12.13854 119.88301 35902 ft 442 kts 204°
2026-04-30 11:26 12.02661 119.82977 35896 ft 443 kts 204°
2026-04-30 11:26 11.97074 119.80321 35893 ft 444 kts 204°
2026-04-30 11:27 11.91432 119.77640 35898 ft 444 kts 204°
2026-04-30 11:27 11.85818 119.74972 35897 ft 444 kts 204°
2026-04-30 11:28 11.77412 119.70979 35892 ft 445 kts 204°
2026-04-30 11:29 11.71765 119.68298 35892 ft 446 kts 204°
2026-04-30 11:29 11.63295 119.64347 35887 ft 445 kts 203°
2026-04-30 11:30 11.54809 119.60421 35885 ft 445 kts 203°
2026-04-30 11:31 11.49170 119.57807 35884 ft 446 kts 204°
2026-04-30 11:31 11.43549 119.55200 35884 ft 445 kts 204°
2026-04-30 11:32 11.38825 119.53011 35888 ft 445 kts 204°
2026-04-30 11:32 11.32226 119.49953 35890 ft 445 kts 204°
2026-04-30 11:33 11.23773 119.46037 35900 ft 446 kts 204°